Location: Ottawa
(45.4170°N, 75.7000°W)
Time: 16:41:52
(UTC-04:00)

Iridium 91 - Visible Passes

Search period start: 30 April 2016 00:00
Search period end: 10 May 2016 00:00
Orbit: 776 x 779 km, 86.4° (Epoch: 30 April)

Date Brightness Start Highest point End Pass type
(mag) Time Alt. Az. Time Alt. Az. Time Alt. Az.
30 Apr 5.8 04:37:19 10° N 04:42:33 71° E 04:47:45 10° S visible
01 May 6.9 04:04:00 10° N 04:08:55 40° E 04:13:47 10° SSE visible
02 May 7.8 03:31:00 10° NNE 03:35:08 23° ENE 03:39:15 10° SE visible
02 May 5.9 05:11:08 10° NNW 05:16:07 46° W 05:21:04 10° SSW visible
03 May 8.3 02:58:41 10° NE 03:01:14 14° ENE 03:03:46 10° E visible
03 May 5.5 04:37:25 10° N 04:42:40 83° W 04:47:52 10° S visible
04 May 6.2 04:03:57 10° N 04:09:06 56° E 04:14:13 10° SSE visible
05 May 7.2 03:30:44 10° NNE 03:35:25 32° ENE 03:40:03 10° SE visible
05 May 6.3 05:11:28 10° NNW 05:16:06 33° W 05:20:43 10° SW visible
06 May 8.0 02:57:55 10° NNE 03:01:35 19° ENE 03:05:14 10° ESE visible
06 May 5.6 04:37:36 10° N 04:42:44 58° W 04:47:50 10° SSW visible
07 May 8.4 02:26:29 10° NE 02:27:37 11° ENE 02:28:44 10° E visible
07 May 5.6 04:04:00 10° N 04:09:15 80° E 04:14:28 10° S visible
08 May 6.5 03:30:37 10° N 03:35:38 45° E 03:40:37 10° SSE visible
09 May 7.4 02:57:32 10° NNE 03:01:53 26° ENE 03:06:13 10° SE visible
09 May 6.0 04:37:52 10° NNW 04:42:45 41° W 04:47:37 10° SSW visible
